Temp
71 71 71 71 71 72 73 75 74 75 75 75 75 75 75 75 76 76 75 75 74 72 72 72 73 73 75 73 74 74 75 74 74 74 74 74 74 74 74 73 73 72 72 72 72 73 73 73 73 73 74 73 72 67 67 66 66 65 65 65 67 70
71 71 71 72 72 72 73 74 72 73 73 74 74 75 74 73 74 72 75 74 71 72 70 70 71 74 72 73 73 75 74 74 74 74 73 73 73 73 73 73 72 72 72 71 73 66 67 71 74 74 73 73 69 67 66 66 66 65 65 65 67 71
71 71 71 71 72 72 72 71 72 72 73 74 74 73 72 73 71 71 71 70 70 70 70 70 71 72 72 73 73 75 74 74 74 74 74 73 73 73 73 73 73 73 71 72 67 66 67 66 67 73 73 70 68 68 67 66 66 65 65 66 66 73
71 71 70 70 71 71 71 71 71 71 71 71 72 72 72 71 71 71 70 69 69 69 69 69 74 74 74 71 72 74 74 74 74 74 74 73 73 73 73 73 73 72 69 68 65 66 68 67 66 67 68 69 68 68 69 67 66 65 66 69 69 73
70 70 70 69 70 70 70 70 70 70 70 70 70 70 70 70 70 69 69 69 68 69 68 69 69 69 68 69 69 69 70 69 69 68 72 67 68 69 68 66 66 66 64 65 66 67 67 66 67 68 69 70 70 69 69 68 67 65 66 67 68 73
68 68 68 68 69 70 71 69 69 70 70 69 69 69 69 69 69 69 68 68 69 68 67 67 67 67 68 68 68 67 67 67 66 67 68 66 65 66 66 67 65 66 66 65 66 67 67 66 66 67 68 70 70 69 69 69 68 66 66 66 69 73
67 67 68 68 69 70 69 69 70 69 69 68 68 68 68 68 68 68 68 69 67 67 66 66 67 67 67 67 67 67 66 66 66 66 66 65 66 66 66 66 66 66 66 67 68 68 67 66 66 67 67 69 70 70 69 69 68 67 66 66 70 73
67 67 67 68 68 68 67 68 69 71 69 70 68 67 67 67 68 68 68 68 68 67 66 66 66 66 66 67 67 67 66 66 66 66 67 66 66 66 67 67 66 65 66 68 69 68 66 66 65 66 68 67 67 67 67 68 68 67 66 67 68 72
67 68 67 67 68 67 67 67 68 68 67 71 67 67 67 67 67 68 68 68 68 67 66 66 66 66 66 66 66 66 65 66 66 66 66 66 68 67 67 67 66 66 65 67 68 67 66 65 65 66 66 66 66 66 66 66 67 67 66 66 67 70
68 68 67 67 67 66 67 66 67 67 67 69 66 66 67 67 67 68 67 68 68 67 67 66 66 66 66 66 65 66 66 65 66 66 67 67 66 66 65 65 65 66 67 66 67 67 66 65 66 66 66 66 65 66 66 66 66 66 66 66 67 69
68 69 67 67 67 66 66 66 66 66 67 66 66 67 66 66 67 67 67 68 68 68 67 67 66 66 66 66 65 65 65 65 65 66 66 66 66 66 65 65 66 65 65 66 66 67 67 65 65 65 65 66 65 66 66 67 66 66 66 66 66 67
67 68 67 67 68 66 66 66 67 66 66 66 67 66 66 66 67 67 68 68 68 67 68 67 67 66 66 65 65 65 65 65 66 65 66 66 66 67 65 66 67 67 67 66 65 65 65 64 64 65 65 65 64 65 65 66 66 66 65 65 66 66
68 67 67 67 66 66 66 67 66 66 66 67 66 66 66 66 66 67 68 68 68 68 68 67 66 66 67 65 65 65 65 66 66 66 67 68 67 66 67 66 66 67 66 65 65 64 65 64 63 63 64 64 65 65 65 66 65 66 66 64 65 65
67 67 66 66 66 66 66 66 67 66 67 67 66 66 66 66 67 67 67 68 67 68 67 67 66 66 65 65 65 65 65 66 67 67 67 67 66 66 66 67 67 67 66 64 64 63 63 63 63 63 63 64 64 64 65 65 64 65 65 64 64 64
67 66 67 66 66 66 67 66 66 66 66 66 66 66 66 67 66 66 67 67 67 67 67 67 67 66 65 65 65 64 64 65 67 68 68 67 66 66 66 66 66 65 63 62 63 63 63 63 63 63 62 63 63 64 65 64 65 65 64 64 64 64
67 66 66 66 66 67 67 66 66 67 66 66 66 66 66 67 67 67 67 67 67 67 67 67 67 66 65 66 65 64 64 65 67 67 67 66 66 65 65 65 65 65 63 62 63 62 62 62 62 62 62 63 63 64 63 64 64 64 64 64 64 63
65 66 66 66 66 66 66 65 65 66 66 66 66 66 67 67 67 67 67 67 67 67 67 67 67 67 66 66 65 65 65 66 67 66 65 65 65 65 65 65 64 65 64 62 62 62 62 62 62 62 62 63 63 64 64 64 63 64 65 64 63 63
65 67 66 66 66 66 65 65 64 64 66 66 66 67 67 67 67 67 67 66 67 67 67 67 67 67 66 66 65 65 65 65 65 65 64 65 64 64 64 64 63 63 64 63 62 61 61 61 62 62 62 62 62 62 63 64 64 64 64 64 63 63
66 67 66 66 66 65 65 65 63 64 65 65 66 67 67 67 67 67 67 66 66 66 67 67 66 66 65 66 65 65 64 65 65 64 64 64 63 64 64 63 63 63 63 63 62 62 62 62 62 62 62 62 63 63 63 64 64 64 63 64 64 65
67 67 67 67 67 65 65 64 64 63 64 65 65 66 67 67 67 67 67 65 66 66 66 66 66 65 65 65 64 64 64 65 64 64 63 63 63 64 63 63 63 63 62 63 63 62 63 62 62 62 62 62 62 63 63 63 63 63 63 64 65 64
67 68 68 67 65 64 63 63 63 63 63 64 65 66 66 66 67 67 67 66 66 65 65 65 65 65 65 66 64 64 64 64 64 64 64 64 64 64 64 64 63 63 62 61 61 63 63 63 62 61 62 61 61 62 64 63 62 62 62 62 63 64
67 67 68 68 66 65 64 65 64 63 64 64 65 65 65 66 66 67 67 66 65 65 65 65 65 65 65 65 64 63 63 63 63 63 64 64 64 65 64 63 64 62 63 62 61 63 63 63 61 60 59 59 60 61 62 62 61 61 61 62 62 63
67 67 68 68 67 66 65 65 64 63 64 64 66 65 66 66 67 67 66 66 65 65 65 65 65 65 65 65 65 63 63 63 64 64 63 63 63 63 63 63 63 62 62 62 62 63 63 62 60 61 61 59 57 56 59 61 61 61 61 60 61 62
67 68 67 67 67 67 67 66 64 63 64 64 64 65 65 65 66 66 65 65 64 65 65 65 66 66 66 65 65 64 64 64 64 64 64 63 63 62 63 62 63 63 63 60 61 62 64 61 62 61 56 55 56 57 55 57 57 59 61 61 61 62
67 67 67 67 67 67 66 65 64 63 64 63 64 63 63 63 64 65 65 64 63 64 65 65 65 66 66 65 65 64 64 64 64 64 64 64 63 62 63 63 64 63 62 62 60 61 62 61 62 64 60 56 54 54 54 55 58 59 60 60 61 62
67 67 67 66 66 66 66 64 62 61 61 61 61 62 61 62 63 63 64 65 64 64 65 64 65 66 66 66 65 65 64 64 64 64 63 63 63 62 62 63 64 63 62 63 62 60 60 61 63 62 60 60 61 56 54 56 58 54 59 59 59 61
67 66 66 66 66 66 65 64 63 63 62 62 62 63 64 64 63 65 65 63 64 64 65 64 64 65 65 66 66 65 65 65 65 64 64 63 62 62 63 63 63 63 63 63 62 60 60 60 61 61 61 61 60 58 61 59 53 54 54 57 59 58
66 66 65 66 66 67 66 65 64 63 63 62 63 63 64 64 65 65 64 63 63 64 65 65 65 65 65 65 66 65 65 65 64 64 64 62 62 62 62 64 64 64 63 63 62 61 60 61 61 60 59 59 59 60 62 58 60 58 56 54 55 59
65 65 65 66 66 66 67 66 65 64 63 63 63 63 64 65 64 64 64 64 64 64 64 65 65 65 66 66 66 66 65 64 64 64 64 62 62 63 63 62 62 62 62 62 62 62 62 61 61 59 59 57 59 59 59 59 60 58 53 54 53 55
65 66 67 67 67 66 66 66 64 64 63 62 62 62 63 63 64 64 63 63 63 63 63 64 64 65 65 66 66 66 65 64 63 64 64 63 63 62 62 62 63 63 63 62 62 62 62 61 61 61 61 59 58 57 57 58 57 56 58 56 56 55
65 66 67 67 66 65 66 66 65 64 63 62 62 62 62 62 63 63 62 62 63 63 62 63 63 64 65 65 65 64 64 63 63 64 64 63 62 62 62 62 62 63 62 62 61 62 61 61 60 60 59 60 60 61 59 57 57 58 57 54 54 55
65 65 66 67 66 66 66 65 65 65 64 63 62 63 62 62 63 62 62 62 62 61 61 62 63 63 64 64 64 64 63 63 63 63 63 63 63 63 63 63 62 62 62 62 62 62 61 61 60 60 59 60 60 60 59 59 59 59 58 57 58 56
65 65 66 66 66 66 65 65 65 65 64 63 63 63 63 63 63 62 61 61 60 61 61 61 62 63 63 64 63 62 62 62 63 63 63 63 63 63 63 62 62 62 62 61 62 62 61 61 61 60 60 59 59 59 60 59 61 60 58 59 59 57
64 64 65 65 64 64 65 65 65 65 64 64 63 63 62 62 62 62 61 61 61 61 61 62 62 63 64 63 63 63 63 63 63 63 63 63 63 63 62 62 62 62 62 62 61 61 61 61 61 61 60 59 60 58 58 60 61 61 60 59 58 60
61 62 62 62 62 63 63 64 65 65 64 64 63 63 62 63 62 61 61 62 61 61 61 62 63 64 63 62 63 63 63 63 62 62 63 62 63 62 62 62 62 62 62 61 61 61 61 61 61 61 60 60 60 59 59 59 61 62 63 63 61 60
60 61 62 61 62 62 62 62 62 62 64 64 64 63 62 62 62 62 62 62 61 61 62 63 63 64 63 64 63 63 63 63 63 63 62 62 62 62 61 61 61 62 62 63 61 60 60 61 61 61 61 60 60 60 60 60 61 62 63 63 62 61
61 61 61 61 62 62 62 62 62 62 62 63 63 62 62 61 62 62 62 62 62 62 63 63 64 64 63 64 64 64 63 63 63 63 62 62 62 61 61 61 61 61 62 61 61 61 60 61 61 61 60 60 60 60 59 61 61 62 62 61 62 62
MSLP
1014.64 1014.80 1014.88 1014.88 1014.88 1014.92 1014.92 1014.96 1015.04 1015.16 1015.36 1015.60 1015.72 1015.84 1015.96 1016.04 1016.16 1016.24 1016.32 1016.40 1016.52 1016.64 1016.76 1016.88 1017.04 1017.16 1017.28 1017.52 1017.64 1017.72 1017.80 1017.92 1018.04 1018.16 1018.24 1018.32 1018.40 1018.48 1018.56 1018.64 1018.72 1018.80 1018.88 1018.96 1019.08 1019.20 1019.24 1019.28 1019.32 1019.44 1019.52 1019.68 1019.84 1020.04 1020.20 1020.28 1020.36 1020.40 1020.44 1020.44 1020.40 1020.40
1014.88 1014.88 1014.80 1014.76 1014.84 1014.88 1014.88 1014.92 1015.04 1015.20 1015.40 1015.56 1015.72 1015.84 1016.00 1016.16 1016.32 1016.44 1016.52 1016.64 1016.76 1016.84 1016.96 1017.04 1017.12 1017.24 1017.44 1017.56 1017.68 1017.76 1017.88 1018.00 1018.12 1018.24 1018.32 1018.40 1018.48 1018.52 1018.64 1018.76 1018.84 1018.92 1019.00 1019.08 1019.16 1019.28 1019.28 1019.32 1019.32 1019.48 1019.64 1019.80 1020.04 1020.24 1020.36 1020.40 1020.44 1020.48 1020.56 1020.56 1020.52 1020.48
1014.56 1014.52 1014.60 1014.68 1014.80 1014.88 1014.92 1015.04 1015.16 1015.32 1015.44 1015.56 1015.68 1015.84 1016.04 1016.20 1016.36 1016.52 1016.64 1016.88 1016.96 1017.04 1017.12 1017.20 1017.28 1017.40 1017.52 1017.64 1017.72 1017.84 1017.96 1018.12 1018.20 1018.32 1018.40 1018.48 1018.56 1018.60 1018.64 1018.80 1018.92 1019.00 1019.08 1019.16 1019.24 1019.32 1019.44 1019.56 1019.48 1019.48 1019.64 1019.88 1020.16 1020.32 1020.44 1020.52 1020.56 1020.60 1020.64 1020.64 1020.64 1020.60
1014.76 1014.76 1014.72 1014.76 1014.84 1014.92 1015.00 1015.08 1015.12 1015.20 1015.32 1015.48 1015.68 1015.88 1016.08 1016.20 1016.36 1016.56 1016.76 1016.96 1017.12 1017.20 1017.28 1017.36 1017.32 1017.44 1017.56 1017.76 1017.80 1017.92 1018.08 1018.20 1018.32 1018.40 1018.52 1018.60 1018.68 1018.68 1018.72 1018.80 1018.88 1019.00 1019.12 1019.24 1019.32 1019.44 1019.60 1019.56 1019.56 1019.56 1019.68 1019.96 1020.24 1020.40 1020.56 1020.60 1020.64 1020.76 1020.76 1020.72 1020.76 1020.72
1014.72 1014.84 1014.96 1015.08 1015.16 1015.24 1015.24 1015.24 1015.24 1015.24 1015.28 1015.44 1015.68 1015.92 1016.16 1016.36 1016.52 1016.68 1016.84 1017.00 1017.16 1017.28 1017.44 1017.48 1017.52 1017.72 1017.84 1017.88 1017.96 1018.12 1018.20 1018.36 1018.44 1018.60 1018.64 1018.84 1018.88 1018.88 1018.84 1018.92 1019.00 1019.12 1019.24 1019.28 1019.36 1019.56 1019.68 1019.68 1019.64 1019.68 1019.80 1019.96 1020.20 1020.48 1020.64 1020.68 1020.68 1020.76 1020.80 1020.84 1020.88 1020.88
1014.84 1015.04 1015.16 1015.28 1015.40 1015.44 1015.48 1015.64 1015.56 1015.44 1015.52 1015.64 1015.80 1016.04 1016.24 1016.44 1016.64 1016.76 1016.88 1017.04 1017.16 1017.40 1017.52 1017.60 1017.72 1017.92 1018.08 1018.04 1018.16 1018.24 1018.32 1018.44 1018.60 1018.72 1018.72 1018.96 1019.04 1019.08 1019.08 1019.08 1019.16 1019.24 1019.32 1019.32 1019.44 1019.68 1019.72 1019.64 1019.76 1019.88 1020.00 1020.08 1020.32 1020.56 1020.68 1020.72 1020.76 1020.84 1020.92 1020.92 1020.96 1021.04
1015.16 1015.12 1015.12 1015.12 1015.24 1015.32 1015.52 1015.64 1015.72 1015.72 1015.80 1015.92 1015.84 1016.08 1016.32 1016.48 1016.64 1016.76 1016.84 1016.96 1017.24 1017.48 1017.60 1017.68 1017.84 1018.04 1018.20 1018.16 1018.28 1018.32 1018.40 1018.48 1018.68 1018.76 1018.80 1019.00 1019.20 1019.20 1019.24 1019.28 1019.28 1019.32 1019.36 1019.36 1019.48 1019.72 1019.80 1019.80 1019.80 1019.96 1020.16 1020.24 1020.36 1020.52 1020.64 1020.72 1020.76 1020.84 1020.96 1021.04 1021.04 1021.12
1015.36 1015.24 1015.16 1015.28 1015.44 1015.56 1015.64 1015.80 1015.92 1015.88 1015.88 1015.84 1015.92 1016.12 1016.28 1016.44 1016.56 1016.72 1016.80 1016.96 1017.12 1017.32 1017.52 1017.76 1017.92 1018.04 1018.16 1018.24 1018.32 1018.36 1018.40 1018.56 1018.68 1018.72 1018.76 1018.84 1019.12 1019.24 1019.28 1019.32 1019.40 1019.44 1019.44 1019.48 1019.64 1019.80 1019.96 1019.96 1020.00 1020.00 1020.28 1020.48 1020.56 1020.60 1020.76 1020.80 1020.72 1020.76 1020.92 1021.04 1021.12 1021.16
1015.56 1015.36 1015.36 1015.40 1015.56 1015.56 1015.68 1015.92 1016.00 1016.04 1016.08 1015.88 1016.08 1016.20 1016.32 1016.44 1016.68 1016.76 1016.84 1016.96 1017.12 1017.40 1017.48 1017.64 1017.84 1017.96 1018.08 1018.24 1018.32 1018.40 1018.52 1018.60 1018.64 1018.68 1018.72 1018.88 1019.00 1019.16 1019.28 1019.36 1019.48 1019.56 1019.56 1019.60 1019.72 1020.00 1020.08 1020.16 1020.16 1020.12 1020.24 1020.52 1020.68 1020.80 1020.84 1020.88 1020.84 1020.80 1020.92 1021.08 1021.16 1021.16
1015.68 1015.48 1015.56 1015.60 1015.56 1015.68 1015.72 1015.96 1016.16 1016.28 1016.32 1016.20 1016.28 1016.32 1016.40 1016.60 1016.72 1016.84 1017.00 1017.04 1017.08 1017.16 1017.32 1017.48 1017.72 1017.84 1018.04 1018.24 1018.32 1018.36 1018.52 1018.60 1018.68 1018.64 1018.72 1018.88 1018.88 1019.08 1019.24 1019.36 1019.44 1019.56 1019.64 1019.72 1020.00 1020.16 1020.12 1020.24 1020.24 1020.20 1020.24 1020.48 1020.68 1020.84 1020.96 1021.08 1021.00 1021.00 1021.04 1021.12 1021.20 1021.16
1015.76 1015.68 1015.72 1015.72 1015.68 1015.76 1015.68 1015.88 1016.20 1016.32 1016.40 1016.44 1016.40 1016.40 1016.44 1016.56 1016.72 1016.84 1016.92 1017.00 1017.04 1017.08 1017.20 1017.36 1017.56 1017.76 1017.92 1018.08 1018.28 1018.36 1018.52 1018.52 1018.60 1018.52 1018.60 1018.64 1018.68 1018.88 1019.04 1019.16 1019.36 1019.52 1019.68 1019.88 1020.04 1020.08 1020.16 1020.28 1020.28 1020.24 1020.32 1020.48 1020.68 1020.76 1020.96 1021.04 1021.08 1021.08 1021.20 1021.28 1021.28 1021.24
1015.84 1015.76 1015.84 1015.76 1015.68 1015.72 1015.64 1015.72 1016.04 1016.28 1016.36 1016.44 1016.44 1016.52 1016.56 1016.60 1016.72 1016.80 1016.84 1016.92 1017.00 1017.12 1017.20 1017.40 1017.52 1017.68 1017.76 1017.96 1018.16 1018.32 1018.40 1018.48 1018.48 1018.44 1018.48 1018.60 1018.60 1018.68 1018.84 1019.12 1019.12 1019.36 1019.64 1019.76 1020.00 1020.16 1020.20 1020.20 1020.32 1020.28 1020.32 1020.60 1020.72 1020.84 1020.96 1021.08 1021.20 1021.20 1021.36 1021.44 1021.40 1021.36
1016.04 1015.92 1015.84 1015.72 1015.72 1015.68 1015.60 1015.64 1015.88 1016.12 1016.24 1016.32 1016.48 1016.52 1016.60 1016.64 1016.64 1016.68 1016.76 1016.84 1017.00 1017.08 1017.24 1017.40 1017.56 1017.56 1017.64 1017.80 1018.00 1018.20 1018.32 1018.32 1018.32 1018.44 1018.48 1018.48 1018.52 1018.64 1018.92 1019.12 1019.32 1019.36 1019.64 1019.84 1020.04 1020.32 1020.36 1020.36 1020.48 1020.48 1020.32 1020.52 1020.68 1020.88 1020.96 1021.04 1021.24 1021.32 1021.52 1021.64 1021.56 1021.48
1016.40 1015.96 1015.72 1015.56 1015.60 1015.64 1015.56 1015.52 1015.68 1015.84 1016.04 1016.20 1016.36 1016.48 1016.52 1016.56 1016.60 1016.68 1016.80 1016.96 1017.08 1017.16 1017.24 1017.36 1017.48 1017.64 1017.64 1017.76 1017.92 1018.08 1018.20 1018.20 1018.12 1018.20 1018.36 1018.52 1018.72 1018.80 1019.12 1019.24 1019.44 1019.56 1019.80 1019.88 1020.16 1020.32 1020.32 1020.56 1020.60 1020.56 1020.52 1020.56 1020.72 1020.92 1021.04 1021.24 1021.44 1021.52 1021.64 1021.72 1021.64 1021.64
1016.56 1015.88 1015.56 1015.40 1015.36 1015.36 1015.28 1015.28 1015.44 1015.64 1015.80 1015.88 1016.16 1016.32 1016.40 1016.48 1016.56 1016.68 1016.84 1017.00 1017.12 1017.16 1017.24 1017.36 1017.40 1017.52 1017.68 1017.76 1017.92 1018.08 1018.12 1018.08 1018.08 1018.28 1018.32 1018.44 1018.68 1018.96 1019.08 1019.32 1019.40 1019.76 1019.92 1020.04 1020.20 1020.28 1020.32 1020.48 1020.68 1020.80 1020.76 1020.72 1020.84 1020.96 1021.12 1021.40 1021.56 1021.68 1021.68 1021.72 1021.72 1021.84
1016.56 1015.84 1015.48 1015.16 1015.04 1015.08 1015.04 1015.08 1015.20 1015.36 1015.52 1015.68 1015.96 1016.20 1016.32 1016.36 1016.52 1016.64 1016.80 1017.00 1017.08 1017.12 1017.20 1017.28 1017.40 1017.44 1017.64 1017.68 1017.84 1018.04 1018.12 1018.08 1018.16 1018.24 1018.32 1018.52 1018.76 1019.04 1019.12 1019.28 1019.40 1019.44 1020.00 1020.28 1020.28 1020.48 1020.40 1020.60 1020.76 1020.84 1020.88 1020.92 1020.96 1021.04 1021.28 1021.48 1021.64 1021.76 1021.68 1021.68 1021.84 1021.96
1016.92 1015.88 1015.40 1015.00 1014.88 1014.96 1015.04 1015.16 1015.24 1015.32 1015.48 1015.64 1015.84 1016.04 1016.16 1016.32 1016.48 1016.60 1016.76 1016.92 1016.96 1017.04 1017.12 1017.16 1017.24 1017.32 1017.44 1017.60 1017.72 1017.92 1018.08 1018.20 1018.24 1018.40 1018.60 1018.60 1018.92 1019.00 1019.08 1019.36 1019.64 1019.56 1019.44 1020.04 1020.28 1020.48 1020.60 1020.64 1020.84 1020.96 1021.04 1021.16 1021.12 1021.04 1021.28 1021.52 1021.64 1021.64 1021.56 1021.80 1021.96 1022.04
1016.28 1015.72 1015.24 1014.96 1014.84 1015.00 1015.16 1015.32 1015.44 1015.56 1015.72 1015.88 1015.96 1016.00 1016.12 1016.24 1016.40 1016.52 1016.64 1016.84 1016.88 1016.96 1017.04 1017.04 1017.16 1017.36 1017.52 1017.60 1017.76 1017.84 1018.04 1018.16 1018.20 1018.44 1018.84 1019.04 1018.96 1018.96 1019.04 1019.20 1019.76 1019.76 1019.72 1019.88 1020.32 1020.56 1020.72 1020.80 1020.96 1021.16 1021.28 1021.36 1021.36 1021.32 1021.40 1021.52 1021.64 1021.72 1021.76 1021.88 1022.00 1022.08
1015.00 1015.20 1015.28 1015.20 1015.20 1015.32 1015.36 1015.44 1015.60 1015.80 1016.00 1016.12 1016.12 1016.08 1016.08 1016.20 1016.28 1016.32 1016.52 1016.76 1016.96 1017.04 1016.96 1017.00 1017.20 1017.76 1018.08 1017.84 1017.76 1017.84 1018.00 1018.16 1018.20 1018.56 1018.84 1019.44 1019.44 1019.16 1019.24 1019.36 1019.56 1019.88 1019.96 1019.88 1020.08 1020.40 1020.56 1020.76 1021.08 1021.24 1021.48 1021.56 1021.56 1021.68 1021.60 1021.60 1021.80 1021.92 1021.80 1021.84 1021.96 1022.12
1014.48 1014.84 1015.08 1015.12 1015.20 1015.40 1015.52 1015.64 1015.88 1016.04 1016.20 1016.24 1016.24 1016.20 1016.16 1016.16 1016.16 1016.24 1016.40 1016.72 1016.72 1016.96 1017.00 1017.00 1017.28 1017.64 1017.96 1018.08 1017.72 1017.96 1018.12 1018.16 1018.32 1018.56 1018.84 1019.36 1019.48 1019.40 1019.32 1019.52 1019.68 1019.76 1020.08 1020.12 1020.20 1020.40 1020.52 1020.76 1021.12 1021.40 1021.64 1021.68 1021.76 1021.92 1021.80 1021.72 1021.92 1022.04 1022.00 1022.00 1022.08 1022.16
1014.40 1014.56 1014.72 1014.84 1014.96 1015.16 1015.52 1015.80 1015.96 1016.08 1016.24 1016.24 1016.24 1016.24 1016.24 1016.20 1016.20 1016.20 1016.28 1016.44 1016.64 1016.92 1016.96 1017.04 1017.20 1017.36 1017.64 1017.88 1017.76 1017.92 1018.12 1018.28 1018.44 1018.52 1018.68 1018.92 1019.08 1019.24 1019.20 1019.28 1019.56 1019.72 1019.88 1020.24 1020.56 1020.56 1020.64 1020.56 1021.08 1021.76 1021.88 1021.96 1022.04 1022.12 1022.08 1022.12 1022.20 1022.52 1022.36 1022.12 1022.12 1022.20
1014.00 1014.24 1014.24 1014.24 1014.32 1014.68 1014.92 1015.08 1015.36 1015.64 1015.96 1016.12 1016.24 1016.36 1016.44 1016.32 1016.24 1016.24 1016.28 1016.40 1016.60 1016.80 1017.04 1017.00 1017.04 1017.32 1017.48 1017.56 1017.76 1017.92 1018.08 1018.28 1018.44 1018.64 1018.76 1018.72 1019.08 1019.24 1019.28 1019.36 1019.40 1019.80 1019.92 1020.16 1020.48 1020.48 1020.52 1020.52 1021.44 1021.60 1022.08 1022.36 1022.40 1022.40 1022.40 1022.36 1022.48 1022.56 1022.52 1022.24 1022.28 1022.20
1013.40 1013.68 1013.84 1013.84 1013.92 1014.16 1014.52 1014.84 1015.12 1015.36 1015.60 1015.88 1015.84 1016.08 1016.36 1016.40 1016.32 1016.32 1016.36 1016.44 1016.56 1016.64 1016.88 1017.20 1017.08 1017.08 1017.24 1017.44 1017.60 1017.80 1018.04 1018.16 1018.40 1018.56 1018.92 1018.96 1019.12 1019.52 1019.32 1019.40 1019.36 1019.48 1020.16 1020.28 1020.40 1020.36 1020.36 1020.16 1020.96 1021.40 1021.68 1022.16 1022.64 1022.92 1022.80 1022.64 1022.52 1022.48 1022.36 1022.36 1022.36 1022.48
1012.80 1013.16 1013.36 1013.44 1013.40 1013.40 1013.84 1014.44 1014.84 1015.16 1015.36 1015.56 1015.84 1016.00 1016.32 1016.52 1016.52 1016.52 1016.64 1016.56 1016.60 1016.60 1016.80 1016.80 1016.84 1016.92 1017.08 1017.32 1017.52 1017.72 1017.88 1018.04 1018.24 1018.40 1018.64 1018.84 1019.12 1019.32 1019.24 1019.44 1019.44 1019.48 1019.52 1020.36 1020.52 1020.64 1020.36 1020.44 1020.48 1021.16 1022.40 1022.32 1022.48 1022.56 1023.12 1023.04 1022.92 1022.72 1022.48 1022.44 1022.44 1022.64
1012.08 1012.52 1012.92 1013.08 1013.16 1013.28 1013.76 1014.40 1014.84 1015.24 1015.36 1015.60 1015.88 1016.16 1016.48 1016.68 1016.64 1016.60 1016.68 1016.76 1016.72 1016.76 1016.68 1016.72 1016.72 1016.80 1016.96 1017.24 1017.44 1017.60 1017.72 1017.88 1018.04 1018.32 1018.40 1018.48 1018.84 1018.88 1018.92 1019.04 1019.20 1019.44 1019.56 1019.68 1020.40 1020.52 1020.60 1020.60 1020.56 1020.20 1020.76 1022.00 1022.76 1022.96 1022.72 1022.56 1022.72 1022.96 1022.64 1022.60 1022.56 1022.80
1012.20 1012.72 1013.00 1013.32 1013.60 1013.56 1013.52 1013.92 1014.64 1015.20 1015.60 1015.76 1016.00 1016.20 1016.40 1016.52 1016.56 1016.56 1016.60 1016.64 1016.80 1016.84 1016.72 1016.76 1016.76 1016.84 1016.92 1017.12 1017.36 1017.48 1017.68 1017.84 1017.96 1018.12 1018.16 1018.24 1018.60 1018.84 1019.00 1019.12 1019.08 1019.12 1019.44 1019.44 1019.56 1020.32 1020.64 1020.60 1020.48 1020.40 1020.36 1020.20 1020.40 1021.32 1022.16 1022.36 1022.40 1023.36 1022.84 1022.72 1022.52 1022.64
1012.24 1012.68 1013.16 1013.64 1013.92 1013.80 1013.52 1013.60 1013.96 1014.36 1014.68 1015.08 1015.48 1015.64 1015.80 1016.12 1016.32 1016.32 1016.40 1016.68 1016.76 1016.80 1016.84 1016.84 1016.92 1016.92 1017.00 1017.16 1017.28 1017.40 1017.56 1017.72 1017.76 1017.88 1018.00 1018.24 1018.60 1018.72 1018.80 1018.88 1018.96 1019.08 1019.24 1019.44 1019.60 1020.04 1020.28 1020.44 1020.56 1020.56 1020.36 1020.24 1020.28 1020.36 1020.56 1021.64 1022.44 1022.72 1023.24 1022.96 1022.60 1022.64
1012.72 1012.80 1013.08 1013.56 1014.00 1013.76 1013.36 1013.28 1013.60 1014.04 1014.44 1014.84 1015.00 1015.28 1015.48 1015.76 1016.04 1016.24 1016.48 1016.68 1016.76 1016.80 1016.84 1016.84 1016.92 1017.00 1017.16 1017.16 1017.32 1017.32 1017.44 1017.64 1017.72 1017.76 1017.84 1018.08 1018.32 1018.52 1018.64 1018.72 1018.80 1018.92 1019.16 1019.28 1019.44 1019.64 1020.08 1020.24 1020.36 1020.60 1020.36 1020.32 1020.28 1020.44 1020.56 1020.68 1020.92 1021.44 1022.16 1023.12 1023.16 1022.72
1013.56 1013.40 1013.44 1013.60 1013.80 1013.64 1013.24 1013.16 1013.24 1013.64 1014.20 1014.52 1014.76 1015.08 1015.36 1015.64 1015.96 1016.20 1016.56 1016.68 1016.76 1016.80 1016.84 1016.80 1016.80 1016.84 1017.12 1017.20 1017.20 1017.20 1017.40 1017.68 1017.72 1017.68 1017.64 1018.00 1018.28 1018.44 1018.52 1018.68 1018.88 1019.00 1019.16 1019.32 1019.36 1019.44 1019.68 1020.04 1020.16 1020.32 1020.44 1020.48 1020.48 1020.72 1020.80 1020.76 1020.96 1021.12 1021.84 1022.68 1023.20 1023.04
1013.56 1013.36 1013.28 1013.52 1013.68 1013.56 1013.40 1013.44 1013.56 1013.60 1013.92 1014.44 1014.68 1015.08 1015.40 1015.72 1015.96 1016.16 1016.48 1016.64 1016.76 1016.80 1016.84 1016.88 1016.84 1016.80 1016.88 1016.92 1016.96 1017.08 1017.40 1017.68 1017.72 1017.60 1017.56 1017.80 1018.24 1018.48 1018.52 1018.52 1018.56 1018.68 1018.88 1019.16 1019.28 1019.36 1019.44 1019.64 1019.84 1020.00 1019.96 1020.12 1020.52 1020.92 1021.00 1021.16 1021.20 1021.36 1021.64 1021.72 1022.36 1022.76
1013.24 1013.12 1013.16 1013.44 1013.64 1013.72 1013.60 1013.60 1013.64 1013.64 1013.76 1014.08 1014.48 1014.88 1015.36 1015.68 1015.92 1016.16 1016.36 1016.56 1016.68 1016.72 1016.80 1016.80 1016.76 1016.80 1016.76 1016.80 1016.92 1017.00 1017.36 1017.56 1017.56 1017.52 1017.48 1017.72 1018.00 1018.24 1018.32 1018.36 1018.48 1018.60 1018.76 1018.96 1019.20 1019.28 1019.48 1019.60 1019.72 1019.84 1019.96 1019.92 1020.16 1020.28 1020.44 1020.80 1021.12 1021.24 1021.40 1021.92 1022.44 1022.76
1013.28 1013.16 1013.04 1013.08 1013.24 1013.44 1013.56 1013.64 1013.64 1013.68 1013.72 1013.88 1014.16 1014.64 1015.08 1015.48 1015.76 1015.96 1016.16 1016.44 1016.56 1016.68 1016.76 1016.76 1016.72 1016.80 1016.84 1016.88 1017.04 1017.08 1017.36 1017.36 1017.36 1017.40 1017.48 1017.52 1017.76 1018.00 1018.12 1018.24 1018.40 1018.48 1018.64 1018.80 1018.96 1019.20 1019.40 1019.64 1019.68 1019.72 1019.76 1019.80 1019.84 1019.92 1020.12 1020.36 1020.64 1020.84 1021.16 1021.52 1021.68 1022.44
1012.64 1012.88 1013.00 1013.08 1013.24 1013.44 1013.68 1013.80 1013.88 1013.88 1013.80 1013.88 1014.08 1014.36 1014.84 1015.28 1015.52 1015.80 1016.00 1016.28 1016.48 1016.60 1016.72 1016.84 1016.76 1016.76 1016.72 1016.92 1017.12 1017.20 1017.16 1017.04 1017.08 1017.12 1017.16 1017.36 1017.56 1017.76 1017.92 1018.12 1018.32 1018.44 1018.52 1018.76 1018.84 1018.96 1019.28 1019.36 1019.40 1019.52 1019.64 1019.72 1019.76 1019.84 1019.96 1020.12 1020.32 1020.68 1021.04 1021.28 1021.64 1022.36
1013.32 1012.96 1012.84 1012.92 1013.36 1013.80 1013.88 1013.96 1014.00 1014.00 1013.96 1014.00 1014.12 1014.32 1014.60 1015.04 1015.36 1015.60 1015.80 1015.96 1016.12 1016.24 1016.48 1016.48 1016.52 1016.48 1016.52 1017.08 1016.76 1016.68 1016.64 1016.68 1016.80 1016.96 1017.04 1017.20 1017.32 1017.56 1017.76 1017.92 1018.04 1018.28 1018.44 1018.52 1018.72 1018.84 1019.00 1019.16 1019.28 1019.28 1019.40 1019.64 1019.72 1019.76 1019.88 1020.04 1020.20 1020.52 1020.92 1021.36 1021.76 1021.84
1013.96 1013.52 1013.36 1013.48 1013.76 1013.92 1014.24 1014.32 1014.20 1014.20 1014.20 1014.20 1014.28 1014.36 1014.52 1014.76 1015.12 1015.48 1015.60 1015.72 1015.84 1016.00 1016.16 1016.24 1016.24 1016.24 1016.76 1016.96 1016.72 1016.64 1016.48 1016.56 1016.80 1016.84 1016.92 1017.08 1017.16 1017.44 1017.72 1017.84 1017.92 1018.12 1018.24 1018.44 1018.68 1018.76 1018.92 1019.04 1019.24 1019.28 1019.36 1019.36 1019.52 1019.64 1019.80 1020.00 1020.08 1020.32 1020.48 1020.76 1021.12 1021.56
1014.28 1014.12 1014.00 1014.04 1013.68 1013.60 1014.00 1014.56 1014.96 1015.20 1014.72 1014.48 1014.48 1014.52 1014.60 1014.76 1014.96 1015.08 1015.24 1015.40 1015.64 1015.76 1015.84 1015.96 1016.08 1016.16 1016.88 1016.80 1016.72 1016.56 1016.36 1016.44 1016.56 1016.72 1016.88 1016.96 1017.04 1017.36 1017.64 1017.84 1018.00 1018.08 1018.24 1018.36 1018.64 1018.80 1018.88 1018.96 1019.08 1019.12 1019.20 1019.32 1019.48 1019.60 1019.80 1019.92 1020.00 1020.12 1020.32 1020.52 1020.84 1021.16
1013.92 1013.64 1013.72 1014.24 1014.08 1013.68 1013.72 1013.88 1014.84 1015.68 1015.68 1015.16 1014.80 1014.80 1014.68 1014.72 1014.80 1014.92 1015.00 1015.12 1015.32 1015.48 1015.68 1015.80 1015.96 1015.96 1016.40 1016.52 1016.56 1016.44 1016.48 1016.44 1016.56 1016.60 1016.72 1016.88 1017.04 1017.28 1017.56 1017.76 1017.96 1018.08 1018.24 1018.40 1018.56 1018.76 1018.88 1018.92 1018.96 1019.08 1019.20 1019.28 1019.40 1019.60 1019.80 1019.88 1020.00 1020.12 1020.28 1020.52 1020.72 1020.92
Wind_Speed
6 6 5 6 6 6 9 13 11 13 13 12 12 12 11 12 11 12 11 11 9 6 5 6 10 9 15 9 10 11 13 13 13 12 12 11 9 8 7 7 6 4 3 3 4 5 5 7 9 11 14 13 12 6 6 5 5 5 4 4 5 7
6 7 8 7 6 6 7 10 8 7 7 10 11 11 9 6 7 5 10 8 5 5 5 6 6 9 6 9 10 13 12 12 13 12 11 10 9 7 6 7 5 4 2 2 3 3 3 8 10 11 12 13 7 6 5 5 5 5 4 4 4 8
9 9 9 8 7 6 7 6 7 7 7 9 9 8 6 7 5 5 4 4 4 4 4 5 5 7 7 10 9 12 12 12 13 12 12 11 9 7 5 5 5 4 3 2 2 3 5 5 5 9 11 8 5 5 5 5 5 5 5 4 4 11
6 7 8 7 6 6 6 6 7 7 6 6 6 6 7 7 6 5 5 5 4 4 4 5 10 14 12 6 7 11 12 12 12 12 12 8 8 7 5 4 3 3 3 3 2 3 5 4 5 5 8 7 6 5 5 5 5 4 4 3 5 13
4 6 5 4 5 5 5 6 5 6 6 6 6 6 6 5 5 6 6 5 5 4 4 4 4 5 4 5 5 4 5 4 4 5 8 4 3 3 3 1 1 1 1 2 2 4 5 5 5 6 7 7 6 5 5 4 4 4 4 4 5 11
5 3 3 3 3 4 5 4 5 5 5 4 6 6 5 5 6 6 6 6 5 5 5 5 5 5 4 5 5 4 5 5 4 4 4 4 3 3 2 1 1 0 0 1 2 4 4 5 7 7 5 6 6 5 4 4 4 4 4 5 6 11
5 5 5 4 5 5 5 5 4 4 5 5 5 6 5 5 6 6 6 7 7 5 5 5 6 5 5 5 5 5 5 5 5 4 3 5 3 3 3 3 1 1 0 0 1 4 5 5 6 7 5 5 6 6 5 5 5 5 5 4 6 11
5 6 6 4 4 4 3 3 4 5 5 6 6 6 5 6 6 7 7 6 7 6 6 6 5 6 5 5 5 5 4 5 5 5 4 5 5 4 4 3 3 1 1 0 2 4 5 5 5 7 7 5 4 4 4 4 5 5 5 5 4 9
4 6 3 3 5 4 4 2 3 3 4 6 5 5 5 6 6 6 6 7 7 7 6 6 6 6 5 5 5 5 5 5 4 4 4 4 4 5 4 4 4 3 2 1 2 5 6 5 5 5 7 6 5 4 5 4 4 5 5 5 5 7
6 7 4 3 5 4 5 5 2 1 2 3 4 4 5 6 6 6 6 6 7 7 7 7 6 6 6 6 5 5 5 4 4 3 4 4 4 4 5 4 3 3 3 2 5 4 6 6 5 5 5 6 5 5 4 4 4 5 5 5 5 5
4 4 3 3 4 4 4 4 3 2 1 3 4 5 5 5 5 5 6 6 6 7 7 6 7 7 6 6 5 5 5 4 4 4 4 5 4 4 4 5 5 5 3 5 5 5 5 6 5 5 4 6 5 5 5 4 4 4 4 4 4 4
5 4 3 3 4 5 5 6 5 4 4 4 4 4 4 5 6 6 6 6 6 6 6 6 7 6 7 7 6 5 4 4 5 5 5 5 4 4 4 1 2 4 6 6 5 5 5 6 5 5 5 5 3 4 5 5 4 5 3 2 4 4
5 4 4 4 4 4 4 4 6 6 5 5 4 4 5 5 5 6 6 6 6 7 6 7 6 7 7 6 6 6 5 5 4 3 5 5 4 3 4 4 6 7 6 6 7 6 5 4 4 3 4 6 5 5 5 5 5 5 3 2 3 4
6 6 5 4 5 5 5 5 5 6 5 6 5 5 5 5 6 5 5 5 6 6 6 6 7 6 5 5 5 5 4 2 1 2 4 5 4 5 5 7 7 7 5 6 7 6 7 6 3 2 2 4 5 5 5 5 4 5 4 3 3 4
7 6 5 6 6 7 6 6 6 6 6 6 6 6 6 5 5 5 5 5 6 6 6 6 6 6 5 5 5 5 4 3 2 2 4 5 7 5 6 7 7 7 5 5 5 4 6 6 6 4 3 4 5 5 5 5 2 2 4 4 4 4
6 6 6 7 6 7 7 6 6 6 6 6 6 6 6 6 5 5 5 6 6 6 6 6 6 6 6 5 5 5 5 3 3 4 5 5 7 6 6 7 7 9 7 5 6 5 4 6 5 5 4 4 5 5 5 5 3 3 3 5 4 4
4 6 7 7 6 5 5 5 6 5 5 5 5 5 5 5 5 6 5 6 6 6 6 6 6 6 7 6 5 6 4 3 5 5 3 6 6 6 7 7 5 4 8 6 6 7 5 5 5 4 4 4 4 5 5 5 4 4 5 5 4 4
7 7 7 7 7 5 3 3 4 4 5 4 4 4 4 5 5 5 5 6 7 7 7 7 6 3 3 4 4 5 4 5 6 6 5 3 6 5 6 7 7 3 5 7 6 7 6 5 5 5 4 4 3 3 5 5 4 3 4 5 4 4
10 8 7 6 3 2 3 2 2 4 4 3 3 3 4 5 5 5 6 5 5 5 6 7 6 5 4 7 6 4 4 5 7 5 6 5 0 4 5 5 8 5 3 3 7 6 6 6 5 5 4 4 4 3 3 4 4 1 3 4 5 4
8 8 6 6 5 4 4 4 4 2 3 4 4 5 4 5 5 5 6 6 6 5 4 6 7 8 2 1 5 4 5 5 7 7 7 7 4 3 6 8 8 8 7 5 4 5 6 7 6 6 4 5 5 4 5 4 4 2 2 4 4 5
9 9 9 8 7 7 6 5 2 5 5 4 6 6 5 5 5 5 7 9 8 6 6 6 5 8 8 5 5 5 6 5 5 6 6 8 6 4 4 7 6 5 8 7 3 4 4 7 9 6 4 5 4 4 4 4 4 4 3 4 5 5
11 10 10 9 8 8 7 7 6 6 4 5 5 7 6 4 5 6 6 7 8 7 2 4 7 5 6 6 6 5 5 6 6 5 5 5 4 4 5 6 6 6 3 7 6 7 7 8 5 7 7 4 3 5 3 2 1 2 2 3 2 4
12 11 11 11 10 9 7 6 6 4 6 4 2 1 1 2 3 5 6 6 7 8 8 6 5 6 6 5 5 6 6 6 6 6 6 7 6 4 7 8 8 8 7 2 3 5 8 2 6 5 4 5 4 3 2 0 1 1 2 3 2 3
13 13 12 12 12 11 9 7 5 5 4 4 3 3 3 2 3 5 5 5 5 7 9 7 7 6 5 5 6 6 6 6 6 5 7 8 8 7 6 6 6 7 9 8 5 6 5 2 5 10 5 2 3 2 4 3 3 0 0 2 3 3
16 15 12 13 13 10 8 7 7 6 5 5 4 4 5 4 5 5 5 4 5 5 6 6 6 6 6 6 5 6 6 6 6 5 6 8 8 8 7 7 8 8 9 10 9 6 7 4 7 3 7 6 2 2 3 3 4 1 0 2 1 6
10 10 10 9 8 8 9 9 9 8 8 5 7 8 9 9 7 8 7 4 4 5 5 5 5 5 5 6 6 6 6 6 6 6 6 6 6 5 6 6 7 9 8 7 11 8 7 4 7 5 3 0 5 5 7 5 5 4 1 1 0 1
11 9 7 6 9 8 8 8 10 10 9 9 9 6 6 6 6 5 4 5 5 4 4 6 4 4 3 4 4 5 6 6 6 6 5 6 6 8 7 6 5 7 7 7 6 10 9 7 4 4 3 2 1 1 9 10 5 4 4 0 1 0
7 8 8 7 9 9 9 9 9 8 8 8 8 8 7 6 5 4 5 5 5 5 5 5 6 4 5 5 5 6 6 5 5 5 6 7 7 6 5 5 6 6 5 6 8 9 8 7 10 6 1 2 0 4 7 3 4 5 6 7 2 1
2 4 7 9 10 10 8 9 9 8 8 6 6 6 5 5 6 5 6 4 5 5 5 5 5 6 8 8 7 6 5 5 5 5 6 5 5 6 8 8 7 7 7 6 7 6 7 8 6 6 4 1 4 5 3 3 5 4 4 6 2 3
6 7 7 9 10 10 8 7 8 8 9 7 7 6 6 7 6 6 7 6 5 5 5 5 5 5 6 6 6 5 5 6 6 5 5 5 6 6 6 7 8 8 7 7 6 6 8 7 6 5 4 5 4 4 4 3 3 3 3 2 7 7
8 7 7 9 8 9 8 8 8 8 8 9 9 9 8 8 7 6 7 6 6 6 5 6 5 5 5 5 3 3 5 5 5 5 5 4 6 7 7 7 7 7 7 7 6 7 5 5 6 6 4 7 7 9 8 5 7 4 5 4 5 3
8 7 8 9 9 9 8 8 7 8 8 8 9 9 10 9 8 8 8 7 6 5 5 5 5 5 6 5 5 4 3 4 6 6 7 6 6 6 6 6 6 7 6 5 5 6 6 7 6 5 5 5 7 6 5 7 7 7 7 6 8 7
13 9 10 10 9 8 7 7 6 7 6 6 8 9 9 9 8 8 7 7 6 7 6 5 5 6 7 7 7 6 6 7 7 7 7 7 6 6 7 6 7 7 6 7 7 8 7 8 7 7 6 3 5 5 5 5 7 7 5 6 7 8
6 5 8 7 3 4 6 5 4 5 5 6 7 8 8 9 8 7 7 8 8 8 7 7 6 7 6 7 7 7 8 9 7 6 6 6 6 5 6 6 7 6 7 7 6 7 7 7 6 5 5 5 5 5 5 6 7 7 7 7 6 9
9 7 5 4 4 3 4 3 3 4 4 5 6 7 7 7 8 8 7 8 7 6 7 6 7 5 7 7 5 5 7 7 6 6 5 5 5 5 5 5 5 4 5 6 6 6 6 7 7 6 5 6 6 4 5 6 7 6 7 8 8 7
7 8 5 2 4 4 3 3 7 7 3 5 5 5 5 6 6 7 8 7 7 6 6 6 4 5 8 9 9 7 7 6 6 6 5 5 5 5 6 6 5 4 5 3 6 6 6 6 6 6 6 4 5 5 4 6 6 6 7 7 7 6
4 4 3 4 4 4 4 5 2 3 7 4 5 6 7 7 7 6 6 6 7 6 5 5 6 4 8 8 9 8 6 7 6 5 5 4 4 4 5 6 5 5 6 4 6 6 6 6 6 6 5 6 6 6 5 4 4 5 5 6 6 7
Wind_Direction
147 138 136 142 148 147 154 151 153 155 150 147 147 148 147 146 147 151 147 146 137 128 138 137 138 142 140 137 137 137 134 129 126 127 124 125 128 131 130 125 117 96 81 50 41 48 55 71 70 72 84 94 97 90 98 99 97 94 83 77 90 97
145 154 159 159 156 158 160 159 154 153 148 155 156 154 153 147 147 152 155 147 131 138 129 131 140 136 131 142 143 144 138 132 131 130 129 127 129 134 137 129 125 121 96 50 24 40 35 47 61 94 102 105 93 98 99 108 106 100 91 84 93 108
171 166 162 162 162 165 163 155 153 149 155 159 162 155 151 152 147 153 144 126 130 123 129 128 124 139 138 144 146 145 139 136 135 134 132 131 134 135 134 133 136 136 105 52 34 30 44 57 63 80 107 109 100 103 109 112 108 108 111 112 112 114
165 168 168 169 164 166 162 158 161 158 154 153 152 152 153 155 152 144 134 126 126 128 127 136 151 149 142 142 148 145 142 140 137 137 136 133 134 134 141 136 143 111 75 39 32 36 53 68 62 81 115 114 111 110 116 118 115 112 115 113 112 114
162 173 169 165 163 166 165 168 161 158 156 154 148 145 147 147 140 138 135 131 133 125 131 142 122 123 121 135 127 129 132 119 123 136 136 120 133 136 125 110 60 62 50 41 25 38 64 67 61 81 112 120 118 116 116 114 112 107 91 94 110 117
142 147 158 164 136 164 172 180 169 161 151 142 141 144 147 142 136 138 141 138 128 123 131 127 123 130 136 134 134 139 133 134 136 141 134 137 134 133 146 148 115 80 12 41 49 64 78 87 79 83 98 109 114 114 113 114 110 104 100 100 110 116
154 164 187 177 163 173 179 182 172 160 149 155 151 150 152 148 142 144 145 144 138 142 138 134 134 140 142 144 146 151 151 144 151 157 153 139 150 165 159 157 167 199 70 263 72 90 86 78 91 93 85 93 106 116 125 128 123 113 110 107 114 119
177 185 189 164 157 177 185 176 174 170 162 166 154 153 148 149 146 151 150 149 146 149 149 147 148 148 154 150 156 154 150 152 158 172 170 167 165 172 179 165 156 188 217 183 109 93 87 90 92 103 98 88 82 102 114 128 132 123 121 121 120 121
193 201 189 147 163 170 170 170 188 178 173 167 144 143 145 143 148 151 153 153 151 151 154 153 159 159 152 154 152 149 156 172 170 177 170 194 176 174 174 171 167 178 194 167 112 87 94 91 95 103 111 103 97 106 125 142 138 124 119 123 126 131
202 202 167 157 165 161 160 167 174 146 205 138 127 131 142 147 150 151 157 161 161 157 162 162 161 156 154 153 150 154 154 170 185 171 175 190 196 168 169 167 163 155 167 141 85 98 105 108 111 122 117 118 120 118 125 150 136 120 120 120 133 134
218 204 160 165 152 145 129 132 117 102 102 123 134 140 145 147 150 156 161 166 165 165 159 160 159 160 156 149 148 155 171 167 176 190 189 202 196 180 169 171 173 168 124 89 107 111 116 118 129 135 135 125 133 126 128 136 127 116 114 118 118 119
229 193 163 163 151 150 160 143 126 131 145 146 146 142 144 149 156 162 166 168 166 166 160 160 161 163 159 153 154 164 177 176 190 186 188 198 204 200 161 169 133 93 110 120 111 109 121 128 139 151 141 126 130 121 113 113 119 112 108 113 108 96
234 183 170 173 157 158 158 148 143 154 160 155 149 143 152 166 165 168 170 167 166 163 162 160 170 169 162 155 156 163 175 194 178 168 177 194 199 166 104 105 84 109 116 116 113 109 100 97 119 152 142 133 129 124 123 119 120 118 122 116 100 99
234 182 174 170 152 161 175 164 155 156 157 155 157 157 164 169 174 172 165 161 161 164 160 164 162 166 156 151 159 160 153 140 153 120 138 125 100 118 122 110 115 111 121 125 120 123 124 118 123 130 117 110 109 111 105 98 105 123 121 111 109 103
220 182 178 183 171 173 180 171 164 161 160 158 157 162 168 172 176 171 156 157 162 162 160 162 164 156 159 156 156 139 136 164 135 126 133 103 103 96 111 117 125 116 122 116 112 126 128 130 134 136 113 100 109 101 90 106 97 115 125 119 108 105
217 181 188 193 186 180 179 174 165 163 160 155 155 164 172 177 168 161 161 157 165 161 158 162 163 158 158 167 152 143 165 187 139 114 106 108 103 108 119 122 128 132 130 126 122 119 121 122 127 130 113 106 108 108 115 114 105 135 132 116 111 113
271 195 195 201 195 186 171 168 168 164 162 153 158 164 167 159 156 165 163 160 163 161 163 166 168 168 159 164 149 150 165 111 75 61 58 107 101 121 129 128 113 126 140 142 134 131 124 124 127 115 100 105 120 129 123 122 131 148 133 120 129 125
226 229 207 203 199 180 153 139 152 145 152 156 158 159 157 160 161 163 163 161 166 165 170 170 168 144 116 111 146 155 129 112 94 86 60 14 118 133 133 131 114 121 139 130 137 137 135 128 114 112 104 90 71 77 109 114 116 99 121 129 133 133
198 203 207 211 205 113 108 99 80 116 149 152 161 170 168 169 167 157 162 148 153 168 168 169 139 115 181 175 156 145 126 113 104 106 106 100 357 136 130 123 128 128 92 111 134 138 139 128 114 109 101 96 82 68 61 88 82 140 107 133 141 134
184 188 192 198 184 151 147 155 156 146 168 173 175 171 177 179 166 165 153 145 164 166 167 162 138 141 129 238 147 134 116 112 125 135 125 126 179 193 142 127 138 136 126 104 91 124 128 118 102 96 94 75 62 83 104 70 118 150 153 134 118 131
178 185 188 190 190 171 165 154 174 197 190 179 183 175 175 172 174 170 163 153 163 175 165 148 145 149 164 167 142 137 126 119 127 144 142 159 174 177 148 135 132 125 134 125 118 133 139 128 122 98 83 84 73 30 60 115 154 160 168 141 144 152
173 185 192 194 189 181 178 179 176 186 157 179 185 190 184 172 171 169 165 158 159 148 140 154 148 151 149 154 142 143 134 135 147 157 162 147 152 166 143 131 130 115 123 139 144 164 163 135 130 147 146 123 78 80 39 65 100 111 146 124 160 137
176 183 190 191 193 196 175 161 167 175 167 171 198 158 137 153 162 165 167 164 154 159 148 172 162 151 144 153 150 144 145 146 155 160 145 139 140 202 161 148 152 147 141 117 127 174 174 189 135 131 112 112 141 121 124 158 43 63 129 137 140 119
177 185 189 190 198 196 176 152 138 131 138 148 163 147 116 154 183 165 169 166 163 161 164 167 160 153 147 153 155 155 153 154 166 160 155 146 161 187 168 151 155 155 148 147 161 183 202 252 151 136 147 176 133 116 135 213 156 316 9 125 132 107
178 183 188 196 197 189 167 139 131 118 120 104 111 139 155 181 193 187 171 178 177 168 163 160 159 156 153 164 164 160 162 162 167 167 166 150 164 181 181 168 162 156 169 161 164 171 201 227 186 179 133 125 86 170 221 163 130 83 6 92 90 117
165 178 191 197 195 192 181 160 148 150 159 160 160 164 184 184 186 190 188 173 170 179 161 158 160 161 157 161 175 171 166 167 181 171 175 154 158 166 176 168 176 169 170 178 163 166 184 222 206 216 241 330 154 168 166 166 149 158 156 268 281 121
166 171 179 195 202 208 185 168 168 170 168 171 174 188 178 178 189 190 158 169 177 170 171 160 165 170 143 167 179 180 174 178 186 171 155 147 165 177 175 173 168 176 177 168 165 169 181 181 179 260 239 220 189 137 147 149 183 122 126 12 339 273
170 173 183 192 207 213 189 181 175 172 167 170 180 178 175 171 168 172 172 175 168 171 172 168 165 169 142 189 204 186 177 172 177 166 160 170 172 170 165 174 174 177 167 177 178 175 176 173 177 203 193 160 66 118 143 69 109 145 132 139 164 358
226 199 195 207 206 208 199 189 184 176 171 167 159 155 153 158 166 166 178 171 172 171 169 172 167 167 171 179 188 189 170 150 167 182 182 166 159 166 175 171 171 173 180 183 185 183 165 179 178 176 138 66 108 127 119 101 124 108 138 135 111 166
232 215 206 205 206 202 198 191 188 185 176 156 142 137 150 165 175 170 176 177 174 172 170 171 176 168 170 177 183 184 150 156 171 181 192 173 157 164 177 182 183 181 175 170 183 176 181 172 169 168 172 149 129 115 96 102 105 114 68 50 157 172
232 218 198 196 197 201 198 193 191 190 182 162 152 148 154 165 173 173 177 177 178 179 174 177 176 182 178 180 160 169 151 160 172 184 197 184 178 174 178 183 181 171 175 170 177 177 175 165 159 165 173 162 157 164 168 161 165 162 147 134 99 111
229 219 192 190 192 198 196 198 198 193 186 171 159 161 165 166 172 179 178 179 175 167 187 185 182 182 193 160 149 180 145 180 191 193 199 194 187 173 170 173 171 176 176 173 170 171 169 166 169 170 173 174 169 160 143 146 163 156 151 159 147 146
199 199 195 193 190 193 197 204 202 200 191 175 171 166 168 168 175 179 178 175 172 185 178 184 189 185 197 153 162 158 184 191 196 198 195 191 187 171 164 164 168 173 167 173 178 173 172 180 173 170 182 172 150 151 155 152 148 151 138 133 135 133
263 225 195 179 187 205 219 209 213 208 191 182 183 171 171 170 174 179 177 180 184 184 181 188 187 189 161 114 179 185 185 199 199 188 187 186 180 168 161 162 162 168 172 176 171 170 173 173 174 175 157 153 165 157 151 153 151 140 145 138 150 147
336 344 19 73 215 264 322 305 248 221 189 195 188 180 176 171 169 172 182 181 185 180 183 192 190 183 118 144 175 184 187 190 188 195 187 187 183 156 150 148 156 166 165 159 161 160 165 166 170 170 169 168 159 154 154 161 154 161 156 162 155 157
346 358 339 298 142 162 161 319 345 323 254 194 201 185 166 160 172 176 177 178 180 185 192 187 184 172 130 162 166 177 186 191 188 197 200 188 179 160 153 148 150 156 159 150 147 158 168 168 171 172 171 156 147 176 167 166 170 160 165 157 150 153
253 217 234 300 269 141 129 138 73 332 308 260 196 198 180 173 174 177 175 174 176 184 183 180 178 176 150 158 162 166 182 191 197 207 202 185 171 161 148 149 153 154 153 151 153 162 164 171 175 167 163 166 176 172 180 174 165 159 148 138 152 160